Tucumcari, NM

4:45 AM MDT on July 25, 2017 (GMT -0600)
Tucumcari Municipal

Weather History for KTCC - September, 2013

Change the Weather History Date:

Thursday, September 26, 2013

  Actual Average Record
Temperature  
Mean Temperature 76 °F -  
Max Temperature 91 °F 82 °F 94 °F (1951)
Min Temperature 63 °F 51 °F 30 °F (1970)
Cooling Degree Days 12    
Growing Degree Days 26 (Base 50)    
Moisture  
Dew Point 48 °F    
Average Humidity 37    
Maximum Humidity 60    
Minimum Humidity 21    
Precipitation  
Precipitation 0.00 in - - ()
Sea Level Pressure  
Sea Level Pressure 29.60 in    
Wind  
Wind Speed 16 mph (SW)    
Max Wind Speed 23 mph    
Max Gust Speed 33 mph    
Visibility 10 miles    
Events      
Averages and records for this station are not official NWS values.
T = Trace of Precipitation, MM = Missing Value Source: NWS Daily Summary

Daily Weather History Graph

Daily Weather History Graph

Search for Another Location

Airport or City:

Trip Planner

Search our weather history database for the weather conditions in past years. The results will help you decide how hot, cold, wet, or windy it might be!

Date:

Astronomy

Sep. 26, 2013 Rise Set
Actual Time 6:45 AM MDT 6:45 PM MDT
Civil Twilight 6:20 AM MDT 7:10 PM MDT
Nautical Twilight 5:50 AM MDT 7:39 PM MDT
Astronomical Twilight 5:21 AM MDT 8:09 PM MDT
Moon 11:56 PM MDT (9/26) 1:28 PM MDT (9/26)
Length of Visible Light 12h 49m
Length of Day
11h 59m
Waning Gibbous, 54% of the Moon is Illuminated
Sep 26
Waning Gibbous
Sep 26
Last Quarter
Oct 4
New
Oct 11
First Quarter
Oct 18
Full

Hourly Weather History & Observations

Time (MDT) Temp. Dew Point Humidity Pressure Visibility Wind Dir Wind Speed Gust Speed Precip Events Conditions
12:53 AM 70.0 °F 48.9 °F 47% 29.55 in 10.0 mi SW 18.4 mph - N/A   Clear
1:53 AM 69.1 °F 48.9 °F 49% 29.56 in 10.0 mi SSW 16.1 mph - N/A   Clear
2:53 AM 70.0 °F 48.9 °F 47% 29.55 in 10.0 mi SSW 17.3 mph 25.3 mph N/A   Clear
3:53 AM 68.0 °F 48.9 °F 50% 29.55 in 10.0 mi SW 15.0 mph - N/A   Clear
4:53 AM 66.9 °F 48.0 °F 51% 29.57 in 10.0 mi West 10.4 mph - N/A   Clear
5:53 AM 63.0 °F 48.9 °F 60% 29.59 in 10.0 mi SW 8.1 mph - N/A   Clear
6:53 AM 64.0 °F 48.9 °F 58% 29.63 in 10.0 mi SW 10.4 mph - N/A   Clear
7:53 AM 68.0 °F 50.0 °F 52% 29.65 in 10.0 mi SW 12.7 mph - N/A   Clear
8:53 AM 72.0 °F 51.1 °F 48% 29.68 in 10.0 mi SW 13.8 mph - N/A   Clear
9:53 AM 80.1 °F 48.9 °F 34% 29.66 in 10.0 mi WSW 15.0 mph - N/A   Clear
10:53 AM 84.0 °F 44.1 °F 25% 29.65 in 10.0 mi WSW 23.0 mph 27.6 mph N/A   Clear
11:53 AM 87.1 °F 43.0 °F 21% 29.64 in 10.0 mi WSW 16.1 mph 24.2 mph N/A   Clear
12:53 PM 88.0 °F 43.0 °F 21% 29.62 in 10.0 mi SW 19.6 mph 27.6 mph N/A   Partly Cloudy
1:53 PM 90.0 °F 45.0 °F 21% 29.59 in 10.0 mi SW 20.7 mph 29.9 mph N/A   Clear
2:53 PM 90.0 °F 46.0 °F 22% 29.58 in 10.0 mi SW 21.9 mph 33.4 mph N/A   Clear
3:53 PM 90.0 °F 46.9 °F 23% 29.58 in 10.0 mi SSW 19.6 mph - N/A   Clear
4:53 PM 90.0 °F 46.9 °F 23% 29.57 in 10.0 mi SSW 17.3 mph 29.9 mph N/A   Clear
5:53 PM 88.0 °F 48.0 °F 25% 29.57 in 10.0 mi SSW 20.7 mph 27.6 mph N/A   Partly Cloudy
6:53 PM 84.0 °F 48.0 °F 28% 29.58 in 10.0 mi South 13.8 mph - N/A   Partly Cloudy
7:53 PM 82.0 °F 48.9 °F 31% 29.59 in 10.0 mi South 16.1 mph - N/A   Clear
8:53 PM 80.1 °F 48.0 °F 32% 29.61 in 10.0 mi SW 12.7 mph - N/A   Clear
9:53 PM 77.0 °F 48.9 °F 37% 29.62 in 10.0 mi SW 15.0 mph - N/A   Clear
10:53 PM 72.0 °F 50.0 °F 46% 29.62 in 10.0 mi SW 13.8 mph - N/A   Clear
11:53 PM 72.0 °F 50.0 °F 46% 29.63 in 10.0 mi South 11.5 mph - N/A   Mostly Cloudy